Вернуться в каталог

COSMOS 2251 DEB

АктивенLEO
NORAD 34070·DEBRIS·🇷🇺 Russia

Запущен Jun 16, 1993 с Plesetsk Cosmodrome

Loading…

Ближайшие Пролёты (ближайшие 24 часа)

TLE

СвежийSource: Space-Track

Эпоха: Sep 14, 2026, 02:34 UTC

1 34070U 93036KH  26257.10713556  .00009438  00000-0  11196-2 0  9999
2 34070  73.9971 291.5433 0020656 329.5533  61.5507 14.84455251926884

Отслеживайте COSMOS 2251 DEB в реальном времени с AllMySat

Download on the App Store